Regional Weather Roundup
Issued by NWS

Home | Current Version | Previous Version | Text Only | Print | Product List | Glossary Off
Versions: 1 2 3 4 5 6 7 8 9 10 11 12 13 14 15 16 17 18 19 20 21 22 23 24 25 26 27 28 29 30 31 32 33 34 35 36 37 38 39 40 41 42 43 44 45 46 47 48 49 50

000
ASUS45 KTFX 301404
RWRMT
MONTANA HOURLY WEATHER ROUNDUP
NATIONAL WEATHER SERVICE GREAT FALLS MT
804 AM MDT MON MAR 30 2015

NOTE: "FAIR" INDICATES FEW OR NO CLOUDS BELOW 12000 FEET WITH NO
SIGNIFICANT WEATHER AND/OR OBSTRUCTIONS TO VISIBILITY.

* THESE STATIONS ARE NOT UNDER NWS QUALITY CONTROL. THEY DO NOT
   REPORT WEATHER SUCH AS PRECIPITATION OR FOG.

MTZ001>007-043-301500-
WEST OF THE DIVIDE
CITY           SKY/WX    TMP DP  RH WIND       PRES   REMARKS
KALISPELL      PTCLDY    30  30 100 CALM      30.13F
MISSOULA       SUNNY     34  30  85 CALM      30.19R
BUTTE          PTCLDY    28  25  89 SE3       30.18S
MULLAN PASS    SUNNY     36  27  70 SW7       30.13F WCI  30
* ESSEX        N/A       31  30  96 SE3        N/A
* LINCOLN      N/A       36  30  79 N2         N/A
* LOOKOUT PASS N/A       32  30  92 S2         N/A
* POLSON       N/A       40  33  76 N/A        N/A
* SEELEY LAKE  N/A       26  24  92 SE1        N/A
* THOMP F APT  PTCLDY    34  17  50 NE3        N/A
$$

MTZ008-052>055-301500-
SOUTHWEST MONTANA
CITY           SKY/WX    TMP DP  RH WIND       PRES   REMARKS
BOZEMAN        PTSUNNY   34  28  79 SE8       30.17R WCI  27
DILLON         PTCLDY    36  23  59 SW10      30.18R WCI  29
* W YELLOWSTON SUNNY     23  20  88 N/A        N/A
* BOULDER HILL N/A       40  22  49 SW3        N/A
* HOMESTAKE PS N/A       31  24  75 SW1        N/A
* MONIDA PASS  N/A       29  19  66 SW2        N/A
* RAYNOLDS PAS N/A       29  11  47 S10G16     N/A   WCI  20
* WHITEHALL    N/A       36  25  64 NW3        N/A
* WISE RIVER   N/A       28  25  89 N/A        N/A
$$

MTZ009>010-012-014-046-048-049-054-301500-
EAST SLOPES AND CENTRAL MONTANA
CITY           SKY/WX    TMP DP  RH WIND       PRES   REMARKS
CUT BANK       CLOUDY    39  30  70 W8        30.04R WCI  33
GREAT FALLS    CLOUDY    46  30  54 SW12      30.06R
HELENA         CLOUDY    43  30  60 S5        30.13S
* DEARBORN     N/A       52  29  41 S6         N/A
* EAST GLACIER N/A       43  29  58 W18G24     N/A
* MONARCH      N/A       44  21  40 SW10       N/A
* PENDROY      N/A       46  29  52 NW9        N/A
* ROGERS PASS  N/A       41  28  60 SE9G20     N/A
* SAINT MARY   N/A       44  30  58 S9G20      N/A
$$

MTZ011-013-016-021-035-040-045-047-050-051-301500-
NORTH CENTRAL MONTANA
CITY           SKY/WX    TMP DP  RH WIND       PRES   REMARKS
HAVRE          PTSUNNY   43  34  71 SW8       30.03R
LEWISTOWN      SUNNY     43  30  60 SW10      30.08R
* N BAR RANCH  SUNNY     46  27  48 NW17      30.08S
* CHESTER      N/A       41  31  68 NE3        N/A
* DENTON       N/A       43  30  60 W11        N/A
* GEYSER       N/A       47  26  44 SW14G19    N/A
* JUDITH GAP   N/A       41  24  51 SE6        N/A
* LOMA         N/A       44  31  60 SW4        N/A
$$

MTZ017>020-022>027-061-062-301500-
NORTHEAST MONTANA
CITY           SKY/WX    TMP DP  RH WIND       PRES   REMARKS
GLASGOW        PTCLDY    43  32  65 W9        29.97R
GLENDIVE       PTSUNNY   46  32  58 W9        29.98R
JORDAN         PTCLDY    48  34  59 W9        30.01R
SIDNEY         PTCLDY    48  34  59 W15       29.92R
WOLF POINT     PTCLDY    45  36  71 W9        29.95R
* BEAVER HILL  N/A       47  32  56 W16        N/A
* CIRCLE       N/A       44  36  74 W2G7       N/A
* LINDSAY DVD  N/A       47  32  56 W20G27     N/A
* NAVAJO       N/A       41  34  76 NW13G18    N/A
* SACO         N/A       40  33  76 W4         N/A
$$

MTZ028>042-056>058-301500-
SOUTHCENTRAL AND SOUTHEAST MONTANA
CITY           SKY/WX    TMP DP  RH WIND       PRES   REMARKS
BAKER          PTCLDY    46  32  58 W15       29.99R
BILLINGS       PTCLDY    52  27  38 W9        30.10R
LIVINGSTON     PTSUNNY   48  25  41 W8        30.15R
MILES CITY     SUNNY     45  30  56 NW6       30.03R
* ALZADA       N/A       41  28  60 W6         N/A
* HYSHAM       N/A       46  25  44 W4         N/A
* LAME DEER    N/A       43  24  47 W10        N/A
* REED POINT   N/A       52  28  40 W9G14      N/A
* ROSCOE HILL  N/A       45  12  26 SW3        N/A
$$

REGIONAL REPORTS...DAKOTAS
CITY           SKY/WX    TMP DP  RH WIND       PRES   REMARKS
WILLISTON      PTCLDY    45  34  65 W9        29.88R
DICKINSON      PTSUNNY   48  32  54 W20       29.88R
CROSBY         SUNNY     41  37  86 NW9       29.87R
WATFORD CITY   SUNNY     46  34  63 W13       29.88R
BISMARCK       PTCLDY    43  32  65 W6        29.85S
GRAND FORKS    CLOUDY    37  34  89 SW5       29.87R WCI  33
FARGO          CLOUDY    39  32  76 E8        29.85F WCI  33
BUFFALO SD     PTSUNNY   43  30  60 W10       29.93R
RAPID CITY     PTSUNNY   52  25  35 NW10      30.02R
$$

REGIONAL REPORTS...WYOMING/IDAHO/WASHINGTON
CITY           SKY/WX    TMP DP  RH WIND       PRES   REMARKS
GILLETTE       CLOUDY    45  25  45 NW13      30.10R
SHERIDAN       PTSUNNY   37  27  67 CALM      30.12R
CODY           PTSUNNY   45  21  38 CALM      30.15R
YELLOWSTONE LA PTCLDY    21  18  88 NW3       30.27S
SALMON         SUNNY     28  25  89 CALM      30.23S
MULLAN PASS    SUNNY     36  27  70 SW7       30.13S WCI  30
SAND POINT     FOG       34  34 100 CALM      30.13R VSB 3/4
SPOKANE        SUNNY     41  36  82 E3        30.10R

$$



USA.gov is the U.S. government's official web portal to all federal, state and local government web resources and services.